Погода в Колежме

Поиск расширенной информации на нашем сайте:

Полезная информация:

Новости сайта



02.01.2020
Опубликован Долгосрочный прогноз погоды по городам России и ближнего зарубежья на январь 2020 года.
Карты: Прогноз на январь и февраль 2020 года, Сравнение прогнозируемой аномалии приземной температуры воздуха на январь 2020 года по разным моделям.




Погода в Колежме - сегодня

Время (UTC), дата Ветер
(°,м/с) 
Видим.   Явления Облачность Т
(°С)
Тd
(°С)
f(%) Тe
(°С)
Pmin
(гПа)
dP
(гПа)
Po
(мм)
O2
(г/м3)
Тmin Tmax R s Состояние
почвы
12 29.11.20 200 (Ю) 50000 м  в посл. час ливневой снег  10/10 630 м кучево-дожд. 
[Cb cap]
-4.5 -5.8 91 -7  1035.3  -0.6  776  319           
15 29.11.20 200 (Ю) 4000 м  слаб. ливневой снег  10/10 630 м кучево-дожд. 
[Cb cap]
-3.9 -5.4 89 -6  1034.7  -0.6  776  318      0.2     
18 29.11.20 170 (Ю) 20000 м  {ливн. осадки}  10/10 600 м кучево-дожд. 
[Cb cap]
-3.5 -4.9 90 -6  1034.1  -0.6  775  317    -3.4  0.2     
21 29.11.20 160 (Ю) 20000 м    10/10 700 м 
[Sc]
-4.1 -5.3 91 -6  1033.3  -0.8  774  317           
00 30.11.20 160 (Ю) 20000 м    10/10 720 м 
[Sc]
-3.8 -5.3 89 -6  1031.8  -1.5  773  317           
03 30.11.20 170 (Ю) 20000 м    10/10 720 м 
[Sc]
-3.7 -5.2 89 -5  1030.1  -1.7  772  316  -4.2         
06 30.11.20 160 (Ю) 20000 м    10/10 800 м 
[Sc]
-3.2 -4.2 93 -6  1029.1  -1  771  315  -4.2      равномерный
сухой снег
100% 
09 30.11.20 160 (Ю) 20000 м    10/10 750 м 
[Sc]
-2.7 -4 91 -5  1027.7  -1.4  770  314           
12 30.11.20 170 (Ю) 50000 м    10/10 800 м 
[Sc]
-1.5 -3.2 88 -3  1025.6  -2.1  769  312           
15 30.11.20 150 (ЮВ) 20000 м    10/10 750 м 
[Sc]
-0.6 -2.1 90 -2  1023.7  -1.9  767  310           
18 30.11.20 170 (Ю) 20000 м    10/10 720 м 
[Sc]
+0.2 -1.2 90 -2  1021.8  -1.9  766  309    +0.2       
21 30.11.20 160 (Ю) 20000 м  в посл. час ливневой снег  10/10 630 м кучево-дожд. 
[Cb cap]
+0.4 -1 90 -1  1020.2  -1.6  765  308           
00 01.12.20 150 (ЮВ) 4000 м  слаб. ливневой снег  10/10 630 м кучево-дожд. 
[Cb cap]
+0.3 -0.5 94 -1  1018.2  -2  763  307           
03 01.12.20 190 (Ю) 20000 м  {ливн. осадки}  9/9 630 м кучево-дожд. 
[Cb cap]
+0.7 -0.7 90 -2  1017.2  -1  762  306  -0.5    0.8     
06 01.12.20 190 (Ю) 20000 м  в посл. час ливневой снег  8/6 660 м кучево-дожд., верхняя 
[Cb cap|Ci sp]
-0.2 -1.4 92 -2  1018  0.8  763  308  -0.3    равномерный
сухой снег
100% 
09 01.12.20 190 (Ю) 20000 м  {ливн. осадки}  8/4 600 м кучево-дожд., верхняя 
[Cb cap|Ci sp]
-0.2 -2.2 86 -3  1018.7  0.7  764  308           
12 01.12.20 200 (Ю) 50000 м  {ливн. осадки}  9/9 700 м кучево-дожд. 
[Cb cap]
-0.2 -2.9 82 -3  1018.6  -0.1  763  308           
15 01.12.20 180 (Ю) 20000 м    9/9 750 м 
[Sc]
-0.7 -3.2 83 -3  1018.8  0.2  764  309      0.0     
21 01.12.20 210 (ЮЗ) 4000 м  слаб. снег  10/0 средняя 
[As op]
+0.2 -0.4 96 -2  1017.5  -0.2  763  307           
00 02.12.20 260 (З) 20000 м  {снег}  10/10 750 м кучево-дожд. 
[Cb cap]
+0.3 -1.1 90 -1  1020.6  3.1  765  308           
03 02.12.20 250 (З) 20000 м    10/10 800 м кучево-дожд. 
[Cb cap]
+0.4 -1 90 1022.9  2.3  767  309  -1.4       
06 02.12.20 230 (ЮЗ) 20000 м    10/10 750 м 
[Sc]
+0.5 -0.9 90 -1  1024.7  1.8  768  309  -0.8    равномерный
мокрый или
старый снег
100% 
09 02.12.20 230 (ЮЗ) 20000 м    10/10 840 м 
[Sc]
-0.2 -2.2 86 -1  1026.2  1.5  769  310           
12 02.12.20 220 (ЮЗ) 50000 м    10/10 800 м 
[Sc]
-0.8 -2.7 87 -2  1026.8  0.6  770  311           
15 02.12.20 220 (ЮЗ) 20000 м    10/10 800 м 
[Sc]
-1.1 -3 87 -2  1026.9  0.1  770  312           
Время (UTC), дата Ветер
(°,м/с) 
Видим.   Явления Облачность Т
(°С)
Тd
(°С)
f(%) Тe
(°С)
Pmin
(гПа)
dP
(гПа)
Po
(мм)
O2
(г/м3)
Тmin Tmax R s Состояние
почвы

Для получения пояснительной информации подведите курсор к названию столбца.

ПОГОДА в Колежме - архив

Всё, что Вы хотите узнать о погоде в Колежме - удобно и подробно!

Выберите нужную дату (начиная с 1 января 2019* года) и нажмите кнопку "Найти".
Будут отображены архивные сводки погоды по пункту Колежма, начиная с указанной даты.


Отображать данные в формате CSV (для использования в таблицах Excel)


Внимание! Наш архив погоды предназначен исключительно для личного некоммерческого использования в познавательных целях. Если Вам необходимы официальные справки о состоянии погоды (для производственных, юридических, коммерческих и т.п. целей), обращайтесь в органы Росгидромета.

*Примечание: данная дата относится к архиву по метеостанциям СССР (Россия, СНГ, Балтия).
Архив по метеостанциям Зарубежной Европы и Азии (кроме Китая) хранится 10 дней, по другим регионам земного шара (Китай, Африка, Америка, Австралия, Океания) - 1 день.

Колежма - район местоположения метеостанции


Название, широта, долгота, высота метеостанции:
Колежма 64.2°ш. 35.9°д. 3 м над ур. моря [Российская Федерация]

Дополнительная информация

В oтличие oт бoльшинства пoгoдных сайтoв мы публикуем пoдрoбную метеoинфoрмацию в детальнoм прoфессиoнальнoм фoрмате.

Характеристики температуры и влажнoсти вoздуха измеряются на высoте 2 м в тени вдали oт зданий и деревьев.
Скoрoсть ветра измеряется на высoте 10 м (на урoвне рoста челoвека скoрoсть ветра ниже в 1.5-2 раза). Если метеoстанция нахoдится в гoрoде или в лесу, тo скoрoсть ветра занижена на 2-4 м/с пo сравнению с oткрытым местoм. Скoрoсть ветра над акватoриями крупных рек и oзёр, а также на вершинах хoлмoв на 2-5 м/с выше, чем в oбычных услoвиях.
Атмoсфернoе давление в разных тoчках местнoсти мoжет значительнo oтличаться oт давления на метеoстанции, в зависимoсти oт услoвий рельефа (при пoдъёме на 10 м давление пoнижается примернo на 1 мм рт.ст.).